sat.trackr.live / text

‹ back to catalog

STARLINK-34614

NORAD 65030 · 2025-161R

PAYLOAD ACTIVE UNKNOWN

§ Identity

Operator
Country
US
Launch date
2025-07-30
Launch site
AFWTR
Launch vehicle
Mass (kg)
RCS (m²)

Purposes: comms

External: N2YO · Heavens-Above · Gunter

§ Orbital elements

Epoch: 2026-09-20T21:59:59.393760Z

Period
93.85 min
Inclination
53.1563°
Eccentricity
0.0000910
Mean motion
15.34421155 rev/d
Perigee alt
462.0 km
Apogee alt
463.3 km
Semi-major
6,840.8 km
B*
5.5292e-4
RAAN
105.7155°
Arg perigee
92.5341°
Mean anomaly
267.5766°
Rev number
6,524

§ Raw data

STARLINK-346141 65030U 25161R   26263.91665965  .00018363  00000+0  55292-3 0  99912 65030  53.1563 105.7155 0000910  92.5341 267.5766 15.34421155 65244

JSON: /api/v1/satellites/65030 · /tle

For live sub-satellite position, see the globe view (requires WebGL).

§ Visibility from observer

Set your observer location to see the next 7 days of passes ≥ 10°. The values pass through the URL so the page stays shareable.

No JS? Fill the form by hand. The geolocation button needs JavaScript.